FW9423 Weather Reports


Display with metric or nautical units.
time (UTC)temp
F
wind
direction
speed
MPH
gust
MPH
rain 1hr
in
rain 24hr
in
rain mn
in
humidity
%
barometer
mb
20260505111549 63 360 2.0 5.0 0.00 0.00 0.00 51 1026.1
20260505111045 63 360 2.0 6.0 0.00 0.00 0.00 51 1026.2
20260505110541 63 360 2.0 6.0 0.00 0.00 0.00 51 1026.1
20260505102043 64 360 3.0 6.0 0.00 0.00 0.00 49 1025.7
20260505101555 65 360 2.0 6.0 0.00 0.00 0.00 48 1025.8
20260505101042 65 360 3.0 8.0 0.00 0.00 0.00 47 1025.6
20260505100542 65 360 3.0 8.0 0.00 0.00 0.00 47 1025.6
20260505100050 65 360 3.0 5.0 0.00 0.00 0.00 47 1025.5
20260505095542 65 360 2.0 6.0 0.00 0.00 0.00 47 1025.5
20260505095043 66 360 2.0 8.0 0.00 0.00 0.00 46 1025.5
20260505094600 66 360 2.0 8.0 0.00 0.00 0.00 46 1025.5
20260505094042 66 360 4.0 8.0 0.00 0.00 0.00 46 1025.5
20260505093539 66 360 2.0 8.0 0.00 0.00 0.00 46 1025.4
20260505093055 66 360 4.0 9.0 0.00 0.00 0.00 46 1025.3
20260505092544 66 360 4.0 9.0 0.00 0.00 0.00 46 1025.4
20260505092046 66 360 3.0 9.0 0.00 0.00 0.00 47 1025.4
20260505091551 66 360 3.0 6.0 0.00 0.00 0.00 47 1025.3
20260505091042 66 360 3.0 5.0 0.00 0.00 0.00 46 1025.3
20260505090542 66 360 1.0 3.0 0.00 0.00 0.00 45 1025.4
20260505090057 66 360 0.0 4.0 0.00 0.00 0.00 45 1025.2
20260505085544 66 360 1.0 5.0 0.00 0.00 0.00 44 1025.2
20260505085045 66 360 2.0 5.0 0.00 0.00 0.00 44 1025.2
20260505084553 66 360 2.0 6.0 0.00 0.00 0.00 44 1025.2
20260505084042 67 360 3.0 6.0 0.00 0.00 0.00 44 1025.1
20260505083547 67 360 2.0 6.0 0.00 0.00 0.00 44 1025.1
20260505083106 66 360 3.0 6.0 0.00 0.00 0.00 44 1025.1
20260505082543 67 360 3.0 8.0 0.00 0.00 0.00 44 1025.0
20260505082040 67 360 4.0 11.0 0.00 0.00 0.00 43 1025.0
20260505081547 67 360 5.0 11.0 0.00 0.00 0.00 43 1025.0
20260505081040 67 360 3.0 12.0 0.00 0.00 0.00 43 1025.1
20260505080544 68 360 5.0 12.0 0.00 0.00 0.00 43 1024.9
20260505080054 68 360 4.0 9.0 0.00 0.00 0.00 43 1025.0
20260505075541 68 360 3.0 6.0 0.00 0.00 0.00 43 1024.9
20260505075042 68 360 3.0 11.0 0.00 0.00 0.00 43 1024.9
20260505074553 69 360 4.0 11.0 0.00 0.00 0.00 42 1025.1
20260505074043 68 360 1.0 6.0 0.00 0.00 0.00 43 1025.0
20260505073542 68 0 0.0 5.0 0.00 0.00 0.00 44 1025.1
20260505073056 68 360 2.0 5.0 0.00 0.00 0.00 44 1025.1
20260505072542 68 360 1.0 6.0 0.00 0.00 0.00 46 1025.1
20260505072042 68 0 1.0 6.0 0.00 0.00 0.00 45 1025.1
20260505071600 68 360 3.0 8.0 0.00 0.00 0.00 45 1025.1
20260505071039 68 360 3.0 8.0 0.00 0.00 0.00 45 1025.1
20260505070543 68 360 2.0 8.0 0.00 0.00 0.00 45 1025.0
20260505065544 68 360 3.0 11.0 0.00 0.00 0.00 46 1025.0
20260505065042 68 360 5.0 11.0 0.00 0.00 0.00 47 1025.0
20260505064556 68 360 4.0 11.0 0.00 0.00 0.00 47 1025.0
20260505064039 67 360 5.0 11.0 0.00 0.00 0.00 46 1025.0
20260505063541 68 360 2.0 9.0 0.00 0.00 0.00 45 1025.0
20260505063052 68 360 4.0 9.0 0.00 0.00 0.00 45 1025.0
20260505062541 68 360 2.0 9.0 0.00 0.00 0.00 45 1025.0
20260505062043 68 360 3.0 9.0 0.00 0.00 0.00 45 1025.0
20260505061632 68 360 3.0 9.0 0.00 0.00 0.00 46 1024.9
20260505061042 68 360 4.0 9.0 0.00 0.00 0.00 45 1025.0
20260505060542 69 92 2.0 7.0 0.00 0.00 0.00 44 1025.0
20260505060059 70 115 2.0 7.0 0.00 0.00 0.00 42 1025.0
20260505055540 70 0 1.0 7.0 0.00 0.00 0.00 43 1025.0
20260505055042 69 173 2.0 7.0 0.00 0.00 0.00 44 1024.9
20260505054555 68 0 1.0 8.0 0.00 0.00 0.00 46 1025.0
20260505054043 67 360 3.0 8.0 0.00 0.00 0.00 47 1025.0
20260505053542 67 360 3.0 8.0 0.00 0.00 0.00 47 1025.0
20260505053056 67 360 2.0 8.0 0.00 0.00 0.00 48 1025.0
20260505052700 67 360 3.0 8.0 0.00 0.00 0.00 48 1025.2
20260505052043 67 360 2.0 8.0 0.00 0.00 0.00 48 1025.2
20260505051547 67 360 3.0 8.0 0.00 0.00 0.00 48 1025.1
20260505051041 67 360 2.0 6.0 0.00 0.00 0.00 49 1025.2
20260505050543 67 360 3.0 10.0 0.00 0.00 0.00 48 1025.2
20260505041555 66 360 4.0 10.0 0.00 0.00 0.00 52 1025.5
20260505041046 67 360 3.0 9.0 0.00 0.00 0.00 52 1025.6
20260505040542 66 360 2.0 9.0 0.00 0.00 0.00 52 1025.7
20260505040100 67 360 4.0 9.0 0.00 0.00 0.00 50 1025.8
20260505035544 67 360 2.0 8.0 0.00 0.00 0.00 51 1025.8
20260505035041 66 360 3.0 12.0 0.00 0.00 0.00 51 1025.9
20260505034550 66 360 4.0 12.0 0.00 0.00 0.00 50 1026.0
20260505034040 67 360 3.0 10.0 0.00 0.00 0.00 50 1026.1
20260505033541 66 360 3.0 10.0 0.00 0.00 0.00 51 1026.1
20260505033059 66 360 4.0 10.0 0.00 0.00 0.00 52 1026.3
20260505032543 65 360 2.0 10.0 0.00 0.00 0.00 54 1026.2
20260505032043 65 360 4.0 10.0 0.00 0.00 0.00 54 1026.4
20260505031552 65 360 4.0 10.0 0.00 0.00 0.00 54 1026.4
20260505031039 65 360 3.0 10.0 0.00 0.00 0.00 55 1026.5
20260505030543 65 360 4.0 10.0 0.00 0.00 0.00 54 1026.7
20260505030051 65 360 5.0 9.0 0.00 0.00 0.00 53 1026.7
20260505025540 65 360 3.0 9.0 0.00 0.00 0.00 54 1026.8
20260505025047 64 360 4.0 11.0 0.00 0.00 0.00 55 1026.9
20260505024544 65 360 4.0 11.0 0.00 0.00 0.00 54 1026.8
20260505024039 66 360 4.0 9.0 0.00 0.00 0.00 54 1026.9
20260505023543 64 360 4.0 9.0 0.00 0.00 0.00 56 1026.9
20260505023051 63 360 3.0 9.0 0.00 0.00 0.00 58 1027.1
20260505022543 63 360 3.0 8.0 0.00 0.00 0.00 59 1027.2
20260505022042 63 360 3.0 9.0 0.00 0.00 0.00 59 1027.2
20260505021550 63 360 4.0 10.0 0.00 0.00 0.00 59 1027.2
20260505021044 64 360 5.0 10.0 0.00 0.00 0.00 59 1027.2
20260505020540 63 360 3.0 9.0 0.00 0.00 0.00 60 1027.3
20260505020050 63 360 4.0 9.0 0.00 0.00 0.00 61 1027.4
20260505015543 63 360 4.0 11.0 0.00 0.00 0.00 61 1027.4
20260505015044 63 360 5.0 11.0 0.00 0.00 0.00 61 1027.4
20260505014549 64 360 6.0 11.0 0.00 0.00 0.00 60 1027.4
20260505014043 64 360 4.0 9.0 0.00 0.00 0.00 61 1027.5
20260505013543 64 360 4.0 10.0 0.00 0.00 0.00 62 1027.6
20260505013049 63 360 5.0 10.0 0.00 0.00 0.00 62 1027.6
20260505012539 63 360 3.0 8.0 0.00 0.00 0.00 63 1027.7
20260505012044 63 360 3.0 8.0 0.00 0.00 0.00 63 1027.7
20260505011552 62 360 4.0 8.0 0.00 0.00 0.00 64 1027.6
20260505011043 62 360 4.0 8.0 0.00 0.00 0.00 64 1027.6
20260505010540 62 360 3.0 9.0 0.00 0.00 0.00 64 1027.7
20260505005541 62 360 4.0 9.0 0.00 0.00 0.00 65 1027.8
20260505005043 62 360 3.0 8.0 0.00 0.00 0.00 66 1028.0
20260505004550 61 360 4.0 8.0 0.00 0.00 0.00 66 1028.0
20260505004042 61 360 4.0 8.0 0.00 0.00 0.00 66 1028.0
20260505003545 61 360 3.0 8.0 0.00 0.00 0.00 67 1028.1
20260505003052 60 360 5.0 9.0 0.00 0.00 0.00 68 1028.1
20260505002540 60 360 4.0 9.0 0.00 0.00 0.00 68 1028.1
20260505002043 60 360 4.0 9.0 0.00 0.00 0.00 68 1028.1
20260505001547 60 360 3.0 8.0 0.00 0.00 0.00 69 1028.1
20260505001039 60 360 3.0 8.0 0.00 0.00 0.00 70 1028.0
20260505000542 59 360 3.0 8.0 0.00 0.00 0.00 70 1027.9
20260505000055 59 360 3.0 8.0 0.00 0.00 0.00 71 1027.8
20260504235540 58 360 3.0 8.0 0.00 0.00 0.00 72 1027.7
20260504235043 58 360 3.0 6.0 0.00 0.00 0.00 73 1027.7
20260504234603 57 360 3.0 6.0 0.00 0.00 0.00 74 1027.7
20260504234044 56 360 3.0 6.0 0.00 0.00 0.00 75 1027.6
20260504233540 56 360 3.0 6.0 0.00 0.00 0.00 75 1027.6
20260504233203 55 360 3.0 8.0 0.00 0.00 0.00 76 1027.5
20260504232541 55 360 3.0 8.0 0.00 0.00 0.00 77 1027.4
20260504232041 54 360 3.0 8.0 0.00 0.00 0.00 78 1027.4
20260504231553 54 360 3.0 6.0 0.00 0.00 0.00 78 1027.3
20260504231041 54 360 2.0 5.0 0.00 0.00 0.00 79 1027.3
20260504230543 53 360 2.0 8.0 0.00 0.00 0.00 79 1027.3
20260504230058 53 360 3.0 8.0 0.00 0.00 0.00 79 1027.2
20260504225544 53 360 3.0 8.0 0.00 0.00 0.00 80 1027.1
20260504225041 52 360 2.0 5.0 0.00 0.00 0.00 81 1027.1
20260504224556 51 360 2.0 5.0 0.00 0.00 0.00 82 1027.0
20260504224042 51 360 1.0 4.0 0.00 0.00 0.00 82 1027.0
20260504223542 50 360 1.0 4.0 0.00 0.00 0.00 82 1027.0
20260504223058 50 360 1.0 4.0 0.00 0.00 0.00 82 1027.0
20260504222542 50 360 2.0 3.0 0.00 0.00 0.00 82 1026.9
20260504222041 50 360 1.0 3.0 0.00 0.00 0.00 82 1026.8
20260504221549 50 360 0.0 0.0 0.00 0.00 0.00 82 1026.9
20260504221041 50 0 0.0 0.0 0.00 0.00 0.00 82 1026.8
20260504220541 50 0 0.0 0.0 0.00 0.00 0.00 82 1026.7
20260504220058 50 0 0.0 1.0 0.00 0.00 0.00 82 1026.6
20260504215543 50 0 0.0 1.0 0.00 0.00 0.00 81 1026.7
20260504215044 50 0 0.0 3.0 0.00 0.00 0.00 81 1026.7
20260504214551 50 0 0.0 3.0 0.00 0.00 0.00 81 1026.5
20260504214040 51 0 1.0 3.0 0.00 0.00 0.00 81 1026.5
20260504213543 51 360 1.0 3.0 0.00 0.00 0.00 80 1026.4
20260504213104 51 360 2.0 4.0 0.00 0.00 0.00 80 1026.3
20260504212544 51 360 1.0 4.0 0.00 0.00 0.00 80 1026.4
20260504212045 51 360 1.0 5.0 0.00 0.00 0.00 80 1026.4
20260504211600 52 360 2.0 5.0 0.00 0.00 0.00 80 1026.4
20260504211044 52 360 3.0 5.0 0.00 0.00 0.00 79 1026.3
20260504210544 52 360 1.0 5.0 0.00 0.00 0.00 79 1026.3
20260504210125 52 360 2.0 5.0 0.00 0.00 0.00 79 1026.4
20260504205542 53 360 2.0 5.0 0.00 0.00 0.00 79 1026.3
20260504205042 53 360 1.0 4.0 0.00 0.00 0.00 79 1026.2
20260504204602 52 0 0.0 2.0 0.00 0.00 0.00 79 1026.2
20260504204043 52 0 0.0 2.0 0.00 0.00 0.00 79 1026.3
20260504203545 52 0 0.0 2.0 0.00 0.00 0.00 79 1026.2
20260504203058 52 0 0.0 0.0 0.00 0.00 0.00 78 1026.2
20260504202540 52 0 0.0 0.0 0.00 0.00 0.00 78 1026.2
20260504202045 53 0 0.0 3.0 0.00 0.00 0.00 78 1026.2
20260504201557 53 0 0.0 4.0 0.00 0.00 0.00 78 1026.0
20260504201039 53 360 2.0 4.0 0.00 0.00 0.00 77 1025.9
20260504200539 54 360 2.0 5.0 0.00 0.00 0.00 77 1026.0
20260504200124 54 360 2.0 5.0 0.00 0.00 0.00 77 1025.9
20260504195541 54 360 2.0 4.0 0.00 0.00 0.00 77 1026.0
20260504195041 54 360 2.0 4.0 0.00 0.00 0.00 77 1025.8
20260504194556 54 360 2.0 4.0 0.00 0.00 0.00 77 1025.9
20260504194041 54 360 2.0 4.0 0.00 0.00 0.00 77 1025.9
20260504193541 54 360 2.0 4.0 0.00 0.00 0.00 77 1025.8
20260504193103 53 0 1.0 4.0 0.00 0.00 0.00 77 1025.8
20260504192540 53 360 0.0 4.0 0.00 0.00 0.00 76 1025.8
20260504192045 53 0 0.0 0.0 0.00 0.00 0.00 76 1025.8
20260504191624 54 0 0.0 3.0 0.00 0.00 0.00 76 1025.8
20260504191041 54 0 0.0 3.0 0.00 0.00 0.00 75 1025.8
20260504190543 54 0 1.0 3.0 0.00 0.00 0.00 75 1025.8
20260504190059 54 360 1.0 3.0 0.00 0.00 0.00 75 1025.8
20260504185540 54 360 1.0 3.0 0.00 0.00 0.00 74 1025.8
20260504185039 55 360 1.0 3.0 0.00 0.00 0.00 73 1025.7
20260504184550 55 0 1.0 3.0 0.00 0.00 0.00 73 1025.7
20260504184042 55 360 1.0 4.0 0.00 0.00 0.00 73 1025.8
20260504183541 55 360 2.0 4.0 0.00 0.00 0.00 73 1025.7
20260504183058 55 360 2.0 4.0 0.00 0.00 0.00 72 1025.7
20260504182539 55 360 2.0 3.0 0.00 0.00 0.00 72 1025.6
20260504182041 55 360 2.0 3.0 0.00 0.00 0.00 72 1025.6
20260504181552 55 360 1.0 3.0 0.00 0.00 0.00 71 1025.7
20260504181041 55 360 1.0 2.0 0.00 0.00 0.00 70 1025.7
20260504180541 55 360 1.0 2.0 0.00 0.00 0.00 70 1025.8
20260504180122 56 360 0.0 3.0 0.00 0.00 0.00 70 1025.7
20260504175544 56 0 1.0 4.0 0.00 0.00 0.00 69 1025.8
20260504175041 56 360 2.0 4.0 0.00 0.00 0.00 69 1025.6
20260504174552 56 360 1.0 3.0 0.00 0.00 0.00 69 1025.6
20260504174043 56 360 1.0 3.0 0.00 0.00 0.00 69 1025.6
20260504173540 57 360 1.0 3.0 0.00 0.00 0.00 68 1025.6
20260504173054 57 360 0.0 3.0 0.00 0.00 0.00 68 1025.6
20260504172540 57 0 0.0 3.0 0.00 0.00 0.00 67 1025.7
20260504172040 57 360 0.0 2.0 0.00 0.00 0.00 67 1025.7
20260504171554 58 0 0.0 0.0 0.00 0.00 0.00 67 1025.8
20260504171041 58 0 0.0 0.0 0.00 0.00 0.00 67 1025.6
20260504170543 58 0 0.0 0.0 0.00 0.00 0.00 66 1025.6
20260504151042 60 360 0.0 3.0 0.00 0.00 0.00 62 1025.9
20260504150545 61 0 0.0 2.0 0.00 0.00 0.00 61 1025.9
20260504141042 61 360 0.0 3.0 0.00 0.00 0.00 58 1026.0
20260504140542 61 360 1.0 3.0 0.00 0.00 0.00 58 1026.1
20260504130543 62 0 0.0 2.0 0.00 0.00 0.00 57 1026.4